SCP
0 0 0 0 0 0 0 0 0 0 0 0 0 0 0 0 0 0 0 0 0 0 0 0 0 0 0 0 0 0 0 0 0 0 0 0 0 0 0 0 0 0 0 0
0 0 0 0 0 0 0 0 0 0 0 0 0 0 0 0 0 0 0 0 0 0 0 0 0 0 0 0 0 0 0 0 0 0 0 0 0 0 0 0 0 0 0 0
0 0 0 0 0 0 0 0 0 0 0 0 0 0 0 0 0 0 0 0 0 0 0 0 0 0 0 0 0 0 0 0 0 0 0 0 0 0 0 0 0 0 0 0
0 0 0 0 0 0 0 0 0 0 0 0 0 0 0 0 0 0 0 0 0 0 0 0 0 0 0 0 0 0 0 0 0 0 0 0 0 0 0 0 0 0 0 0
0 0 0 0 0 0 0 0 0 0 0 0 0 0 0 0 0 0 0 0 0 0 0 0 0 0 0 0 0 0 0 0 0 0 0 0 0 0 0 0 0 0 0 0
0 0 0 0 0 0 0 0 0 0 0 0 0 0 0 0 0 0 0 0 0 0 0 0 0 0 0 0 0 0 0 0 0 0 0 0 0 0 0 0 0 0 0 0
0 0 0 0 0 0 0 0 0 0 0 0 0 0 0 0 0 0 0 0 0 0 0 0 0 0 0 0 0 0 0 0 0 0 0 0 0 0 0 0 0 0 0 0
0 0 0 0 0 0 0 0 0 0 0 0 0 0 0 0 0 0 0 0 0 0 0 0 0 0 0 0 0 0 0 0 0 0 0 0 0 0 0 0 0 0 0 0
0 0 0 0 0 0 0 0 0 0 0 0 0 0 0 0 0 0 0 0 0 0 0 0 0 0 0 0 0 0 0 0 0 0 0 0 0 0 0 0 0 0 0 0
0 0 0 0 0 0 0 0 0 0 0 0 0 0 0 0 0 0 0 0 0 0 0 0 0 0 0 0 0 0 0 0 0 0 0 0 0 0 0 0 0 0 0 0
0 0 0 0 0 0 0 0 0 0 0 0 0 0 0 0 0 0 0 0 0 0 0 0 0 0 0 0 0 0 0 0 0 0 0 0 0 0 0 0 0 0 0 0
0 0 0 0 0 0 0 0 0 0 0 0 0 0 0 0 0 0 0 0 0 0 0 -0 -0 -0 -0 0 0 0 0 0 0 0 0 0 0 0 0 0 0 0 0 0
0 0 0 0 0 0 0 0 0 0 0 0 0 0 0 0 0 0 0 0 0 0 0 0 0 0 0 0 0 0 0 0 0 0 0 0 0 0 0 0 0 0 0 0
0 0 0 0 0 0 0 0 0 0 0 0 0 0 0 0 0 0 0 0 0 0 0 0 0 0 0 0 0 0 0 0 0 0 0 0 0 0 0 0 0 0 0 0
0 0 0 0 0 0 0 0 0 0 0 0 0 0 0 0 0 0 0 0 0 0 0 0 0 0 0 0 0 0 0 0 0 0 0 0 0 0 0 0 0 0 0 0
0 0 0 0 0 0 0 0 0 0 0 0 0 0 0 0 0 0 0 0 0 0 0 0 0 0 0 0 0 0 0 0 0 0 0 0 0 0 0 0 0 0 0 0
0 0 0 0 0 0 0 0 0 0 0 0 0 0 0 0 0 0 0 0 0 0 0 0 0 0 0 0 0 0 0 0 0 0 0 0 0 0 0 0 0 0 0 0
0 0 0 0 0 0 0 0 0 0 0 0 0 0 0 0 0 0 0 0 0 0 0 0 0 0 0 0 0 0 0 0 0 0 0 0 0 0 0 0 0 0 0 0
0 0 0 0 0 0 0 0 0 0 0 0 0 0 0 0 0 0 0 0 0 0 0 0 0 0 0 0 0 0 0 0 0 0 0 0 0 0 0 0 0 0 0 0
0 0 0 0 0 0 0 0 0 0 0 0 0 0 0 0 0 0 0 0 0 0 0 0 0 0 0 0 0 0 0 0 0 0 0 0 0 0 0 0 0 0 0 0
0 0 0 0 0 0 0 0 0 0 0 0 0 0 0 0 0 0 0 0 0 0 0 0 0 0 0 0 0 0 0 0 0 0 0 0 0 0 0 0 0 0 0 0
0 0 0 0 0 0 0 0 0 0 0 0 0 0 0 0 0 0 0 0 0 0 0 0 0 0 0 0 0 0 0 0 0 0 0 0 0 0 0 0 0 0 0 0
0 0 0 0 0 0 0 0 0 0 0 0 0 0 0 0 0 0 0 0 0 0 0 0 0 0 0 0 0 0 0 0 0 0 0 0 0 0 0 0 0 0 0 0
0 0 0 0 0 0 0 0 0 0 0 0 0 0 0 0 0 0 0 0 0 0 0 0 0 0 0 0 0 0 0 0 0 0 0 0 0 0 0 0 0 0 0 0
0 0 0 0 0 0 0 0 0 0 0 0 0 0 0 0 0 0 0 0 0 0 0 -0 0 0 0 0 0 0 0 0 0 0 0 0 0 0 0 0 0 0 0 0
0 0 0 0 0 0 0 0 0 0 0 0 0 0 0 0 0 0 0 0 0 0 0 0 0 0 0 0 0 0 0 0 0 0 0 0 0 0 0 0 0 0 0 0
Wind_Speed
1 2 5 8 8 7 5 5 7 5 0 1 3 3 4 5 4 4 4 4 5 5 5 6 7 7 7 7 7 7 7 6 6 4 4 3 2 2 1 1 3 3 3 4
3 6 9 5 4 5 5 5 5 2 1 1 1 3 3 5 5 5 5 5 5 4 4 5 7 7 8 8 7 7 7 7 6 4 3 3 3 2 2 1 2 2 3 4
6 9 3 3 4 2 3 5 5 3 1 3 2 4 2 2 3 4 4 4 5 7 7 7 8 7 8 9 9 8 7 7 6 5 4 4 3 3 2 1 1 1 2 3
7 7 3 3 3 2 4 3 3 3 2 2 2 4 5 2 3 5 6 6 6 6 6 7 8 8 9 9 8 8 8 7 6 6 6 6 4 3 3 2 2 1 1 2
6 3 2 4 4 3 2 3 5 4 3 2 2 0 7 1 4 7 8 8 8 8 8 9 9 10 9 9 8 7 7 6 6 6 7 6 4 3 2 2 2 1 0 0
7 3 3 3 1 2 5 6 6 5 5 2 1 1 7 4 6 5 6 8 9 9 8 8 7 7 6 7 7 7 7 6 6 6 6 6 7 5 4 3 2 1 0 0
5 3 2 2 3 2 3 5 5 5 5 4 2 2 9 7 6 7 7 9 9 9 9 8 8 9 8 8 9 8 8 7 7 7 6 7 7 7 6 5 4 3 2 1
3 6 3 3 5 5 3 6 6 3 4 5 2 5 8 5 4 4 5 6 7 8 8 9 10 10 9 9 9 9 9 8 7 7 7 6 6 5 4 5 4 4 3 3
7 7 3 2 2 7 5 2 4 6 1 2 5 7 9 2 1 3 4 5 7 8 8 9 9 9 9 9 10 10 10 8 8 8 7 6 6 6 5 5 4 3 3 3
8 4 3 1 4 4 4 7 5 5 3 3 5 5 5 5 4 4 5 7 8 7 7 8 8 9 9 9 9 9 9 10 8 8 8 7 7 7 6 5 5 5 4 3
4 4 2 1 2 4 4 4 5 4 4 5 3 8 7 8 7 8 9 9 10 10 10 10 9 9 8 7 8 9 9 8 8 9 8 7 7 7 6 6 6 5 4 5
4 5 2 4 2 2 4 6 7 5 4 4 3 10 5 6 6 6 8 8 8 9 10 9 8 7 8 8 8 9 9 10 10 9 8 8 7 6 7 7 6 6 6 5
6 5 2 5 5 1 1 3 4 6 5 5 4 9 4 1 3 5 6 7 7 7 7 7 7 8 9 9 9 9 10 10 9 8 9 8 7 8 8 8 7 6 6 6
6 4 6 7 7 4 3 3 5 6 5 5 8 9 9 5 5 6 6 7 6 7 8 8 8 8 8 9 9 9 9 9 9 9 9 9 9 9 9 8 7 7 7 6
5 3 4 5 4 3 4 4 6 7 8 9 8 8 10 7 6 6 5 5 5 6 7 9 10 9 8 8 8 9 9 8 9 9 10 10 9 8 7 7 7 7 7 7
3 3 2 3 2 2 3 5 5 6 5 6 5 9 6 4 3 3 3 4 5 6 8 9 9 8 9 10 10 9 9 9 9 10 10 8 7 7 8 8 7 7 7 6
3 4 3 3 2 1 5 6 5 4 4 6 8 7 3 3 2 2 3 1 3 4 5 6 8 9 10 10 10 11 10 8 9 9 8 7 7 8 8 7 6 7 7 6
5 4 3 1 1 5 7 1 2 3 3 4 4 4 2 2 1 3 3 2 2 2 1 4 5 5 5 6 6 6 7 8 8 7 7 6 7 7 6 6 7 7 5 6
4 6 4 3 2 6 5 1 2 2 4 3 3 3 2 2 2 4 6 5 3 2 2 1 1 2 3 5 6 7 6 6 7 7 8 7 8 7 6 7 7 6 5 6
5 5 5 3 3 5 6 1 1 2 4 3 2 2 1 2 3 2 6 6 6 6 4 3 3 4 4 3 6 7 6 6 7 7 7 6 7 7 8 8 7 5 5 7
2 3 3 4 4 8 5 0 3 3 7 1 1 0 1 2 2 1 3 5 6 7 6 5 5 4 3 3 6 5 5 6 6 3 3 4 5 6 6 5 4 4 5 5
6 5 4 4 3 8 2 3 5 6 1 1 1 2 3 3 3 3 5 6 8 8 8 6 5 5 4 4 5 4 3 3 2 3 3 3 3 4 4 4 4 4 4 5
6 7 7 8 8 5 2 3 2 2 2 1 2 2 4 5 5 5 6 8 9 8 7 6 6 7 6 5 4 3 1 1 3 2 2 2 2 2 2 3 4 3 3 4
3 2 3 3 6 4 3 2 1 2 2 2 4 5 6 6 6 6 7 7 8 8 7 6 7 8 7 5 4 3 3 2 3 2 0 0 1 2 2 2 3 3 4 5
4 4 3 4 5 3 2 1 2 4 6 7 7 6 6 7 7 7 7 7 6 6 5 6 6 7 6 5 5 5 4 3 3 2 1 1 1 2 2 2 3 4 5 5
4 6 7 7 6 5 3 2 6 8 8 8 8 8 6 7 8 8 7 5 4 5 5 6 6 6 5 5 6 5 4 3 3 2 2 1 1 1 2 2 4 6 8 10
Wind_Direction
39 48 253 239 211 222 240 247 267 274 263 159 233 239 212 195 205 211 205 193 184 177 165 164 165 169 160 155 154 156 151 147 138 130 128 125 129 125 119 142 144 142 137 128
4 267 247 253 237 217 223 247 259 282 51 121 282 276 220 200 212 214 210 198 191 182 166 165 161 161 166 164 165 162 160 156 157 145 136 131 128 129 125 111 128 148 149 148
218 251 288 303 306 273 244 211 225 212 68 46 4 319 254 228 219 223 226 206 195 191 184 180 172 171 167 170 174 171 168 162 158 139 115 97 83 73 81 104 139 168 165 167
237 261 270 280 273 210 259 247 182 140 109 332 32 301 289 233 239 226 221 211 208 201 188 183 178 177 179 180 175 168 166 161 157 148 146 146 151 162 183 171 170 163 155 174
250 253 289 280 262 190 199 58 79 85 100 21 14 286 290 291 248 239 220 213 210 201 191 190 187 186 184 176 171 168 160 160 159 160 159 149 146 153 139 127 142 150 93 213
250 246 224 227 321 118 128 76 60 53 61 352 293 215 284 240 226 229 213 208 204 198 192 193 188 178 176 169 166 163 162 167 165 164 162 161 160 157 151 157 169 183 206 257
296 283 230 161 104 56 90 85 29 360 5 269 263 237 256 251 228 212 206 203 198 193 188 186 182 181 179 175 175 171 170 176 174 169 171 173 171 168 174 178 185 183 189 209
238 284 242 191 174 171 175 141 153 205 239 285 302 251 258 259 243 218 203 195 186 186 188 189 189 186 184 182 180 177 180 184 178 176 178 176 172 170 180 182 181 188 196 208
193 247 270 202 157 136 137 148 150 129 136 301 289 288 300 273 211 200 183 178 193 195 193 194 189 188 186 186 187 187 185 187 184 182 176 178 179 180 185 185 183 189 200 207
172 228 272 241 91 60 128 141 104 115 142 274 296 283 257 259 222 194 192 196 204 201 200 199 196 195 195 194 189 184 187 191 186 180 182 186 187 189 187 180 191 200 205 203
149 179 292 5 166 169 125 111 108 111 148 163 259 274 231 220 212 199 205 203 199 199 203 204 203 200 196 190 183 186 189 186 183 185 186 182 187 187 186 191 201 202 202 201
148 132 239 266 266 158 165 165 147 150 206 178 192 268 271 227 222 205 210 209 201 201 204 204 200 192 189 191 190 191 191 191 192 186 182 187 187 183 190 202 206 201 205 208
137 121 67 345 343 356 166 152 143 125 119 154 182 263 295 308 259 227 218 214 202 200 198 196 190 193 196 195 193 193 193 196 189 179 181 185 188 191 200 206 204 201 207 210
118 132 169 200 222 210 214 181 153 136 154 195 221 252 290 305 281 258 236 222 202 199 198 196 195 197 198 195 193 192 195 189 180 179 184 192 198 200 205 204 201 203 205 210
114 175 218 237 238 203 223 224 185 189 194 195 230 234 258 267 262 258 242 219 196 198 199 202 204 200 195 194 195 191 192 186 182 182 191 202 201 199 200 201 205 206 206 215
112 168 182 281 269 222 253 250 220 215 212 220 246 261 256 277 278 270 244 197 195 208 209 209 206 198 196 197 195 189 190 185 178 186 198 199 193 196 202 205 205 205 212 216
135 137 134 263 316 24 269 246 211 204 210 198 220 245 308 324 330 312 296 229 201 212 209 207 206 203 201 198 189 190 187 171 173 186 192 189 189 198 205 206 203 210 216 216
133 120 134 196 58 235 250 302 169 186 234 235 252 268 275 260 288 38 23 359 328 304 217 207 204 204 197 180 174 171 156 163 175 184 190 188 187 200 200 198 209 216 214 217
136 131 123 133 208 275 293 233 164 188 277 237 238 272 264 242 71 30 15 10 349 327 310 273 190 178 156 160 157 146 152 164 177 192 198 195 192 197 198 206 215 213 209 221
69 99 121 141 182 242 252 231 161 116 284 257 206 244 286 65 75 331 346 359 6 10 13 30 71 88 106 131 135 144 160 167 194 206 206 198 193 198 206 214 215 209 211 226
92 82 134 166 216 259 257 223 109 171 248 268 176 154 70 87 162 260 351 18 25 25 24 41 65 77 90 118 132 151 162 194 209 193 177 180 193 205 212 214 213 214 220 231
170 158 176 151 199 257 229 142 183 218 247 70 70 80 94 97 72 51 46 38 34 34 29 42 63 60 60 90 116 135 182 210 152 141 162 190 199 210 211 209 220 219 220 233
192 187 183 186 211 240 227 217 230 174 158 135 118 109 107 89 71 58 48 42 37 34 30 34 54 56 49 62 98 127 240 116 118 131 174 210 215 218 214 210 223 227 225 237
242 149 155 243 263 256 251 240 227 180 165 132 117 112 104 96 84 71 59 48 43 37 33 36 53 58 46 35 45 44 34 69 98 113 170 210 225 250 243 234 230 233 239 245
215 161 185 253 270 298 287 212 139 113 103 95 93 94 101 101 92 83 69 50 43 42 35 46 58 61 51 43 42 34 41 72 77 60 25 354 304 277 275 266 249 244 243 239
195 180 184 226 224 194 227 158 129 116 109 109 105 90 81 91 89 80 70 58 53 53 50 53 55 57 47 44 38 25 30 64 76 50 14 352 325 307 296 294 295 267 260 270